Regional Weather Roundup
Issued by NWS

Home | Current Version | Previous Version | Graphics & Text | Print | Product List | Glossary On
Versions: 1 2 3 4 5 6 7 8 9 10 11 12 13 14 15 16 17 18 19 20 21 22 23 24 25 26 27 28 29 30 31 32 33 34 35 36 37 38 39 40 41 42 43 44 45 46 47 48 49 50
000
ASUS43 KLOT 060812
RWRIL

ILLINOIS REGIONAL WEATHER ROUNDUP
NATIONAL WEATHER SERVICE CHICAGO/ROMEOVILLE IL
300 AM CDT MON JUL 06 2015

NOTE: "FAIR" INDICATES FEW OR NO CLOUDS BELOW 12,000 FEET WITH NO
SIGNIFICANT WEATHER AND/OR OBSTRUCTIONS TO VISIBILITY.

* THESE STATIONS ARE NOT UNDER NWS QUALITY CONTROL. THEY ALSO MAY NOT
  REPORT WEATHER SUCH AS PRECIPITATION OR FOG.

ILZ001-002-007-009-015-016-024-060900-
NORTHWEST ILLINOIS

CITY           SKY/WX    TMP DP  RH WIND       PRES   REMARKS
MOLINE         CLEAR     69  64  84 S6        29.96R HAZE
STERLING*      CLEAR     63  61  94 SE3       29.99R
SAVANNA*       CLEAR     66  64  91 SE6       29.97F FOG
$$

ILZ003-004-008-010-011-017-018-060900-
NORTH CENTRAL ILLINOIS

CITY           SKY/WX    TMP DP  RH WIND       PRES   REMARKS
ROCKFORD       PTCLDY    66  62  87 SW3       30.03R
FREEPORT*      CLEAR     64  62  93 CALM      30.01R FOG
ROCHELLE*      CLEAR     63  62  96 S5        30.01S FOG
DE KALB*       CLEAR     62  60  93 S6        30.03R FOG
PERU*          CLEAR     68  63  85 S6        30.01R HAZE
$$

ILZ005-006-012>014-019>023-060900-
NORTHEAST ILLINOIS

CITY           SKY/WX    TMP DP  RH WIND       PRES   REMARKS
CHICAGO-OHARE  CLEAR     69  62  78 CALM      30.02R
CHICAGO-MIDWAY CLEAR     72  64  76 SW3       30.02R
AURORA         CLEAR     66  61  84 CALM      30.02R HAZE
LANSING*       CLEAR     65  61  87 S5        30.02R
JOLIET*        CLEAR     64  62  94 CALM      30.01S FOG
WAUKEGAN       CLEAR     62  60  93 S3        30.01R
DUPAGE AIRPORT MOCLDY    68  62  81 CALM      30.02R
KANKAKEE*      CLEAR     67  64  92 S5        30.03R
WHEELING       CLEAR     67  60  78 CALM      30.03R
MORRIS*        CLEAR     67  64  90 CALM      30.00S FOG
ROMEOVILLE*    CLEAR     67  62  84 S3        30.02R
NORTHERLY ISL    N/A     72  62  71 S3          N/A
$$

LMZ740>746-060900-
SOUTHERN LAKE MICHIGAN

STATION/POSITION SKY/WX   TEMP    WIND        PRES    VSBY  WAVE
                          AIR SEA DIR/SP/G                  HT/PER
                          (F)     (DEG/KT/KT) (MB)    (MI)  (FT/S)
HARRISON CRIB              72     190/ 14/ 15   N/A
BURNHAM HARBOR             72     210/  4/  8   N/A
CALUMET HARBOR             71     170/  6/  8   N/A
BURNS HARBOR               71     180/  6/ 11 1016.9F
MICHIGAN CITY              71     140/ 10/ 14   N/A
MICHIGAN CITY 6N           68 66  180/  8/ 10   N/A           1
ST. JOSEPH                 68 65  220/  8/ 10   N/A           1
$$

ILZ025>027-034>036-040-047-049-050-058-095>099-060900-
WEST-CENTRAL ILLINOIS

CITY           SKY/WX    TMP DP  RH WIND       PRES   REMARKS
QUINCY         PTCLDY    73  69  87 S8        29.96S FOG
GALESBURG*     CLEAR     68  65  91 S5        29.99R FOG
MACOMB*        CLEAR     67  66  97 S6        30.00R FOG
JACKSONVILLE*  CLEAR     73  69  86 S7        29.98S FOG
PITTSFIELD*    CLEAR     71  68  89 SE3       29.99R FOG
$$

ILZ028>032-037-038-041>044-048-051>054-059>061-060900-
CENTRAL ILLINOIS

CITY           SKY/WX    TMP DP  RH WIND       PRES   REMARKS
PONTIAC        CLEAR     64  64  97 CALM      30.02R FOG
BLOOMINGTON    CLEAR     67  65  93 SW7       30.03S
DECATUR        CLEAR     68  63  84 S3        30.02S
PEORIA         CLEAR     72  64  76 S9        29.99F
LACON*         CLEAR     68  63  85 SE6       29.99S
LINCOLN*       CLEAR     67  64  88 S5        30.01S
SPRINGFIELD    CLEAR     72  66  81 S8        30.00S
TAYLORVILLE    CLEAR     64  63  94 S3        30.01F FOG
$$

ILZ033-039-045-046-055>057-062-063-060900-
EAST-CENTRAL ILLINOIS

CITY           SKY/WX    TMP DP  RH WIND       PRES   REMARKS
CHAMPAIGN      CLEAR     65  63  93 SE3       30.03S FOG
DANVILLE*      CLEAR     66  65  98 CALM      30.00F FOG
RANTOUL*       CLEAR     67  65  96 CALM      30.03R FOG
MATTOON        CLEAR     67  66  97 SE5       30.02S FOG
PARIS*           N/A     67  66  98 SE3       30.04F FOG
$$

ILZ079-100>102-060900-
SOUTHWEST ILLINOIS

CITY           SKY/WX    TMP DP  RH WIND       PRES   REMARKS
ALTON          CLEAR     67  67 100 SE3       29.99F FOG
BELLEVILLE     CLEAR     69  69 100 CALM      29.99S
CAHOKIA*       CLEAR     71  68  90 S3        29.99F FOG
SPARTA*        CLEAR     70  67  89 SE3       30.01F
$$

ILZ064>066-069>071-074>076-080>082-084>086-088>090-092>094-060900-
SOUTH-CENTRAL ILLINOIS

CITY           SKY/WX    TMP DP  RH WIND       PRES   REMARKS
CARBONDALE     CLEAR     70  67  90 MISG      30.01F FOG
CAIRO*         MOCLDY    75  73  93 SW5       30.03S
EFFINGHAM*     CLEAR     66  64  91 CALM      30.03F FOG
MARION         CLEAR     72  68  88 S5        30.02F FOG
MT. VERNON     PTCLDY    64  61  88 CALM      30.03S
CENTRALIA*     PTCLDY    66  64  91 CALM      30.01F FOG
SALEM*         CLEAR     68  65  92 CALM      30.01F FOG
$$

ILZ067-068-072-073-078-083-087-091-060900-
SOUTHEAST ILLINOIS

CITY           SKY/WX    TMP DP  RH WIND       PRES   REMARKS
LAWRENCEVILLE  CLEAR     70  67  90 S3        30.03S FOG
FLORA*         CLEAR     66  65  97 CALM      30.02F FOG
FAIRFIELD*     CLEAR     68  67  98 CALM      30.01F FOG
HARRISBURG*    PTCLDY    67  67 100 CALM      30.04R FOG
ROBINSON*      CLEAR     68  67  96 CALM      30.04S FOG
CARMI*         FOG       66  62  86 CALM      30.02S VSB 1/4
$$

ABBREVIATIONS USED IN REMARKS
   TC - TEMPERATURE IN CELSIUS
  WCI - WIND CHILL INDEX
   HX - HEAT INDEX
  VSB - VISIBILITY
$$




USA.gov is the U.S. government's official web portal to all federal, state and local government web resources and services.